1488985200.39,18750,11.5,73566.5,0.31,-31.61,-31.29,0,*48
1488985201.62,18751,11.5,73564.5,0.31,-31.61,-31.29,0,*49
1488985202.84,18752,11.5,73566.0,0.31,-31.45,-31.23,0,*46
1488985204.06,18753,11.5,73566.3,0.31,-31.67,-31.51,0,*42
1488985205.31,18754,11.5,73564.3,0.31,-31.85,-31.51,0,*49
1488985206.51,18755,11.5,73564.5,0.31,-31.45,-31.29,0,*4B
1488985207.73,18756,11.5,73566.0,0.29,-31.17,-31.17,0,*4B
1488985208.95,18757,11.5,73566.5,0.29,-31.01,-31.01,0,*4A
1488985210.15,18758,11.5,73560.5,0.27,-30.83,-30.83,0,*4B
1488985211.34,18759,11.5,73562.5,0.31,-31.05,-31.05,0,*4D
1488985212.56,18760,11.5,73564.5,0.29,-31.01,-31.01,0,*4E
1488985213.8,18761,11.5,73566.3,0.29,-30.51,-30.45,0,*4A
1488985215.03,18762,11.5,73560.8,0.31,-31.11,-31.29,0,*4E
1488985216.29,18763,11.5,73564.5,0.29,-31.51,-31.57,0,*4B
1488985217.54,18764,11.5,73566.5,0.31,-31.11,-30.95,0,*4E
1488985218.78,18765,11.5,73564.5,0.31,-30.61,-30.73,0,*41
1488985220.03,18766,11.5,73566.8,0.31,-30.95,-30.95,0,*41
1488985221.28,18767,11.5,73564.5,0.31,-30.77,-30.73,0,*44
1488985222.5,18768,11.5,73566.5,0.31,-31.51,-31.45,0,*4A
1488985223.72,18769,11.5,73564.5,0.31,-31.67,-31.51,0,*4B
1488985224.96,18770,11.5,73564.0,0.33,-31.67,-31.61,0,*42
1488985226.2,18771,11.5,73570.0,0.31,-31.95,-31.85,0,*46
1488985227.45,18772,11.5,73570.0,0.31,-31.95,-31.85,0,*45
1488985228.69,18773,11.5,73564.3,0.29,-31.67,-31.57,0,*4F
1488985229.95,18774,11.5,73568.8,0.29,-31.73,-31.73,0,*4B
1488985231.22,18775,11.5,73570.0,0.29,-31.51,-31.39,0,*44
1488985232.49,18776,11.5,73570.8,0.29,-31.57,-31.73,0,*4F
1488985233.74,18777,11.5,73566.0,0.29,-32.39,-32.63,0,*47
1488985234.98,18778,11.5,73566.5,0.27,-31.73,-31.91,0,*45
1488985236.17,18779,11.5,73568.5,0.27,-31.67,-31.67,0,*48
1488985237.37,18780,11.5,73566.5,0.27,-31.17,-31.33,0,*48
1488985238.62,18781,11.5,73568.0,0.27,-30.95,-31.11,0,*42
1488985239.82,18782,11.5,73568.0,0.27,-30.67,-30.83,0,*46
1488985241.04,18783,11.5,73566.5,0.27,-30.45,-30.51,0,*48
1488985242.26,18784,11.5,73564.5,0.27,-30.67,-30.95,0,*47
1488985243.49,18785,11.5,73568.0,0.27,-30.61,-30.83,0,*47
1488985244.74,18786,11.5,73566.0,0.29,-30.33,-30.77,0,*46
1488985245.96,18787,11.5,73568.0,0.29,-30.83,-31.29,0,*46
1488985247.21,18788,11.5,73570.0,0.29,-30.77,-31.33,0,*49
1488985248.46,18789,11.5,73568.5,0.27,-30.51,-30.77,0,*43
1488985249.68,18790,11.5,73572.0,0.27,-30.67,-30.95,0,*42
1488985250.93,18791,11.5,73570.3,0.29,-31.11,-31.29,0,*4B
1488985252.18,18792,11.5,73570.0,0.29,-31.11,-31.29,0,*48
1488985253.43,18793,11.5,73570.8,0.29,-31.29,-31.39,0,*43
1488985254.69,18794,11.5,73566.5,0.29,-31.39,-31.57,0,*4D
1488985255.96,18795,11.56,73572.0,0.29,-31.73,-31.73,0,*44
1488985257.18,18796,11.5,73562.8,0.27,-31.73,-31.67,0,*4C
1488985258.43,18797,11.5,73566.5,0.27,-31.73,-31.85,0,*41
1488985259.65,18798,11.5,73564.5,0.23,-31.95,-31.79,0,*41
1488985260.88,18799,11.5,73564.3,0.23,-31.23,-31.17,0,*45
1488985262.08,18800,11.5,73562.8,0.23,-31.45,-31.33,0,*4C
1488985263.3,18801,11.5,73564.0,0.27,-31.33,-31.11,0,*48
1488985264.51,18802,11.5,73566.0,0.23,-31.17,-30.83,0,*43
1488985265.73,18803,11.5,73564.3,0.27,-31.39,-31.17,0,*46
1488985266.95,18804,11.5,73566.3,0.27,-32.23,-31.85,0,*42
1488985268.17,18805,11.5,73566.0,0.23,-31.95,-31.33,0,*44
1488985269.4,18806,11.5,73568.5,0.23,-31.45,-30.55,0,*4B
1488985270.62,18807,11.5,73570.5,0.23,-30.51,-29.83,0,*4D
1488985271.86,18808,11.5,73566.3,0.27,-30.51,-29.89,0,*4C
1488985273.09,18809,11.5,73568.0,0.23,-30.17,-29.83,0,*41
1488985274.28,18810,11.5,73570.3,0.27,-30.33,-30.11,0,*48
1488985275.5,18811,11.5,73568.5,0.23,-30.73,-30.27,0,*4C
1488985276.73,18812,11.5,73566.3,0.23,-30.67,-30.17,0,*49
1488985277.97,18813,11.5,73568.5,0.23,-30.89,-30.55,0,*4E
1488985279.22,18814,11.5,73566.3,0.23,-30.73,-30.55,0,*4C
1488985280.44,18815,11.56,73568.3,0.23,-30.55,-30.33,0,*49
1488985281.66,18816,11.5,73568.5,0.23,-30.51,-30.33,0,*4E
1488985282.88,18817,11.5,73566.5,0.23,-30.51,-30.33,0,*4F
1488985284.1,18818,11.5,73568.5,0.27,-29.89,-29.79,0,*4F
1488985285.34,18819,11.5,73566.3,0.27,-29.73,-29.73,0,*41
1488985286.54,18820,11.5,73570.8,0.27,-30.27,-30.27,0,*4B
1488985287.78,18821,11.5,73570.5,0.29,-30.51,-30.23,0,*41
1488985289.01,18822,11.5,73570.0,0.29,-30.67,-30.33,0,*46
1488985290.24,18823,11.5,73570.3,0.29,-30.67,-30.67,0,*46
1488985291.49,18824,11.5,73564.0,0.29,-30.61,-30.67,0,*47
1488985292.75,18825,11.5,73564.3,0.29,-30.77,-30.95,0,*4C
1488985293.97,18826,11.5,73570.0,0.29,-30.23,-30.11,0,*42
1488985295.21,18827,11.5,73568.0,0.29,-29.73,-29.61,0,*41
1488985296.43,18828,11.5,73568.3,0.29,-29.45,-29.45,0,*4D
1488985297.68,18829,11.5,73568.5,0.29,-29.61,-30.51,0,*47
1488985298.91,18830,11.5,73570.3,0.29,-30.27,-30.83,0,*4A
1488985300.15,18831,11.5,73568.8,0.31,-30.39,-30.61,0,*41
1488985301.4,18832,11.5,73570.5,0.29,-30.67,-30.95,0,*4B
1488985302.62,18833,11.5,73570.3,0.29,-30.27,-30.33,0,*42
1488985303.87,18834,11.5,73572.0,0.31,-30.05,-30.17,0,*4A
1488985305.09,18835,11.56,73572.0,0.29,-30.33,-30.27,0,*44
1488985306.3,18836,11.56,73574.5,0.31,-30.61,-30.45,0,*4D
1488985307.55,18837,11.5,73568.8,0.29,-31.29,-30.95,0,*45
1488985308.78,18838,11.5,73570.3,0.29,-31.29,-30.83,0,*4D
1488985310.02,18839,11.5,73568.8,0.29,-31.51,-31.17,0,*4F
1488985311.25,18840,11.5,73570.3,0.31,-31.45,-31.23,0,*4A
1488985312.49,18841,11.5,73568.0,0.29,-31.29,-30.95,0,*44
1488985313.78,18842,11.5,73568.3,0.29,-31.11,-30.77,0,*40
1488985315.02,18843,11.5,73568.8,0.31,-31.11,-30.55,0,*48
1488985316.26,18844,11.5,73566.5,0.29,-30.51,-29.57,0,*49
1488985317.48,18845,11.5,73570.5,0.31,-29.61,-28.43,0,*4E
1488985318.73,18846,11.5,73570.5,0.29,-28.69,-27.23,0,*44
1488985319.99,18847,11.5,73570.0,0.29,-27.83,-26.55,0,*4E
1488985321.21,18848,11.5,73570.3,0.29,-27.51,-26.07,0,*49
1488985322.44,18849,11.5,73570.0,0.29,-27.67,-26.07,0,*4D
1488985323.71,18850,11.5,73568.5,0.29,-28.09,-26.33,0,*45
1488985324.94,18851,11.5,73574.5,0.29,-28.85,-27.03,0,*42
1488985326.16,18852,11.5,73568.3,0.31,-29.01,-27.29,0,*4D
1488985327.39,18853,11.5,73570.3,0.31,-29.83,-28.21,0,*41
1488985328.6,18854,11.5,73566.8,0.31,-30.39,-28.97,0,*42
1488985329.83,18855,11.56,73574.3,0.31,-30.89,-29.39,0,*4D
1488985331.07,18856,11.5,73572.5,0.29,-30.77,-29.23,0,*4D
1488985332.29,18857,11.5,73572.0,0.31,-30.89,-29.83,0,*4E
1488985333.54,18858,11.5,73574.0,0.31,-30.77,-30.05,0,*46
1488985334.78,18859,11.5,73570.3,0.29,-30.77,-30.23,0,*4A
1488985336.05,18860,11.5,73568.3,0.29,-31.39,-30.95,0,*46
1488985337.3,18861,11.5,73568.5,0.29,-31.73,-31.29,0,*4F
1488985338.55,18862,11.5,73570.5,0.29,-31.39,-30.67,0,*49
1488985339.77,18863,11.5,73568.8,0.29,-31.29,-30.67,0,*49
1488985340.99,18864,11.5,73570.3,0.29,-31.67,-31.17,0,*42
1488985342.27,18865,11.5,73572.5,0.29,-31.85,-31.39,0,*43
1488985343.46,18866,11.5,73570.5,0.27,-31.67,-31.29,0,*43
1488985344.71,18867,11.5,73570.5,0.27,-31.51,-31.11,0,*4C
1488985345.93,18868,11.5,73572.8,0.27,-31.01,-30.61,0,*40
1488985347.14,18869,11.5,73572.5,0.27,-31.33,-30.83,0,*4C
1488985348.36,18870,11.5,73568.8,0.27,-31.33,-30.61,0,*48
1488985349.59,18871,11.5,73568.5,0.27,-31.73,-31.17,0,*4D
1488985350.82,18872,11.5,73566.3,0.27,-31.29,-30.77,0,*46
1488985352.02,18873,11.5,73566.8,0.23,-31.01,-30.33,0,*49
1488985353.21,18874,11.5,73568.5,0.27,-30.67,-30.11,0,*4B
1488985354.41,18875,11.5,73570.3,0.27,-30.83,-30.11,0,*40
1488985355.63,18876,11.5,73570.0,0.27,-31.11,-30.11,0,*49
1488985356.86,18877,11.5,73568.5,0.29,-31.29,-30.33,0,*4D
1488985358.13,18878,11.5,73572.5,0.29,-31.11,-30.51,0,*4D
1488985359.35,18879,11.5,73570.5,0.29,-31.67,-31.29,0,*43
1488985360.6,18880,11.5,73570.3,0.27,-31.73,-31.39,0,*4F
1488985361.84,18881,11.56,73574.0,0.29,-32.01,-31.73,0,*48
1488985363.09,18882,11.5,73568.0,0.27,-32.07,-31.57,0,*45
1488985364.34,18883,11.5,73570.3,0.27,-31.57,-31.11,0,*40
1488985365.56,18884,11.5,73570.8,0.23,-32.13,-31.57,0,*42
1488985366.78,18885,11.5,73570.0,0.27,-32.57,-31.91,0,*4D
1488985368.02,18886,11.5,73570.8,0.23,-32.29,-31.61,0,*4C
1488985369.25,18887,11.5,73570.5,0.23,-31.79,-31.39,0,*46
1488985370.52,18888,11.5,73570.0,0.21,-31.51,-30.77,0,*4A
1488985371.77,18889,11.5,73568.8,0.21,-31.79,-30.95,0,*4D
1488985373.05,18890,11.5,73568.0,0.21,-31.95,-30.77,0,*4B
1488985374.27,18891,11.5,73568.8,0.19,-31.79,-30.55,0,*43
1488985375.55,18892,11.5,73568.0,0.21,-31.61,-30.01,0,*43
1488985376.8,18893,11.56,73570.0,0.19,-31.39,-29.89,0,*4C
1488985378.02,18894,11.5,73570.5,0.19,-30.89,-29.57,0,*42
1488985379.29,18895,11.56,73570.3,0.21,-30.77,-29.73,0,*4F
1488985380.51,18896,11.5,73568.3,0.19,-30.61,-29.57,0,*46
1488985381.7,18897,11.5,73568.8,0.19,-31.05,-30.23,0,*4F
1488985382.94,18898,11.5,73570.5,0.19,-30.89,-30.05,0,*41
1488985384.19,18899,11.56,73572.5,0.19,-30.89,-30.05,0,*40
1488985385.41,18900,11.5,73570.0,0.19,-31.51,-30.45,0,*41
1488985386.66,18901,11.5,73570.8,0.21,-31.23,-30.45,0,*4E
1488985387.88,18902,11.5,73570.5,0.19,-31.11,-30.23,0,*47
1488985389.1,18903,11.56,73574.3,0.19,-31.67,-30.55,0,*46
1488985390.33,18904,11.5,73568.8,0.19,-31.11,-30.23,0,*41
1488985391.55,18905,11.5,73570.0,0.19,-31.67,-31.11,0,*41
1488985392.77,18906,11.5,73570.3,0.19,-31.45,-30.95,0,*4F
1488985394.02,18907,11.56,73572.8,0.21,-31.29,-30.61,0,*44
1488985395.23,18908,11.5,73568.3,0.19,-31.45,-30.45,0,*4C
1488985396.42,18909,11.5,73568.5,0.19,-31.29,-30.23,0,*47
1488985397.67,18910,11.56,73572.3,0.19,-30.77,-29.89,0,*4D
1488985398.92,18911,11.5,73570.5,0.19,-30.61,-29.89,0,*4B
1488985400.16,18912,11.56,73572.3,0.21,-30.55,-29.67,0,*44
1488985401.4,18913,11.5,73570.8,0.21,-30.73,-30.23,0,*49
1488985402.6,18914,11.5,73570.8,0.19,-31.05,-30.45,0,*45
1488985403.85,18915,11.5,73568.8,0.19,-31.23,-30.95,0,*4D
1488985405.08,18916,11.56,73572.3,0.19,-31.29,-30.77,0,*48
1488985406.3,18917,11.56,73574.5,0.19,-30.89,-30.45,0,*43
1488985407.55,18918,11.5,73574.0,0.21,-31.29,-30.89,0,*4C
1488985408.78,18919,11.5,73572.3,0.19,-31.29,-31.11,0,*46
1488985410.02,18920,11.5,73570.5,0.19,-31.51,-31.39,0,*49
1488985411.27,18921,11.56,73574.5,0.19,-31.51,-31.39,0,*48
1488985412.52,18922,11.56,73572.0,0.19,-31.61,-31.51,0,*46
1488985413.74,18923,11.5,73570.5,0.19,-32.13,-31.85,0,*48
1488985415.01,18924,11.5,73574.0,0.21,-31.85,-31.51,0,*41
1488985416.23,18925,11.56,73574.3,0.19,-32.13,-31.61,0,*44
1488985417.43,18926,11.5,73570.5,0.19,-31.79,-31.29,0,*44
1488985418.66,18927,11.56,73572.3,0.19,-31.51,-31.05,0,*41
1488985419.88,18928,11.5,73570.3,0.19,-31.29,-30.73,0,*41
1488985421.15,18929,11.56,73574.8,0.17,-31.51,-30.95,0,*49
1488985422.4,18930,11.5,73568.3,0.17,-31.85,-31.29,0,*4E
1488985423.67,18931,11.5,73570.8,0.17,-31.51,-30.77,0,*4C
1488985424.91,18932,11.56,73572.5,0.17,-31.33,-30.51,0,*4F
1488985426.15,18933,11.5,73572.0,0.17,-31.17,-30.51,0,*48
1488985427.39,18934,11.5,73570.0,0.17,-31.01,-30.39,0,*46
1488985428.62,18935,11.5,73574.3,0.19,-31.29,-30.61,0,*4E
1488985429.86,18936,11.5,73570.5,0.17,-30.83,-30.39,0,*4F
1488985431.07,18937,11.56,73576.8,0.17,-31.67,-31.33,0,*4E
1488985432.32,18938,11.5,73570.5,0.15,-32.19,-31.73,0,*4D
1488985433.56,18939,11.56,73568.0,0.17,-31.73,-31.29,0,*4E
1488985434.79,18940,11.56,73570.0,0.15,-30.83,-30.51,0,*42
1488985436.01,18941,11.5,73572.3,0.15,-30.83,-30.39,0,*4D
1488985437.27,18942,11.5,73574.8,0.17,-30.39,-29.73,0,*4B
1488985438.49,18943,11.5,73574.8,0.15,-29.89,-29.23,0,*4E
1488985439.71,18944,11.5,73574.3,0.17,-31.17,-30.83,0,*47
1488985440.98,18945,11.56,73574.3,0.17,-31.85,-31.91,0,*4F
1488985442.23,18946,11.5,73572.3,0.15,-32.19,-32.19,0,*4B
1488985443.45,18947,11.5,73574.3,0.13,-32.23,-32.13,0,*4F
1488985444.67,18948,11.5,73572.3,0.15,-32.19,-32.35,0,*4B
1488985445.92,18949,11.56,73574.5,0.13,-32.29,-32.13,0,*4B
1488985447.16,18950,11.5,73570.5,0.13,-32.75,-32.57,0,*4A
1488985448.41,18951,11.5,73568.0,0.13,-32.57,-32.45,0,*48
1488985449.65,18952,11.5,73568.0,0.13,-32.29,-32.23,0,*42
1488985450.89,18953,11.5,73568.5,0.11,-31.91,-31.79,0,*4D
1488985452.16,18954,11.56,73572.8,0.11,-31.95,-31.91,0,*48
1488985453.43,18955,11.56,73574.3,0.11,-31.39,-31.23,0,*46
1488985454.7,18956,11.5,73570.5,0.13,-31.91,-31.73,0,*40
1488985455.95,18957,11.5,73568.5,0.11,-32.13,-32.07,0,*4A
1488985457.22,18958,11.56,73570.0,0.13,-31.95,-31.61,0,*49
1488985458.47,18959,11.5,73570.0,0.11,-31.73,-31.33,0,*45
1488985459.71,18960,11.56,73568.5,0.11,-31.51,-31.05,0,*4A
1488985460.98,18961,11.5,73568.5,0.11,-31.73,-31.39,0,*44
1488985462.25,18962,11.5,73564.8,0.13,-31.73,-31.39,0,*45
1488985463.5,18963,11.5,73564.5,0.11,-31.51,-31.17,0,*4A
1488985464.75,18964,11.5,73564.3,0.13,-31.33,-30.73,0,*48
1488985466.02,18965,11.56,73570.8,0.11,-31.23,-30.55,0,*4E
1488985467.25,18966,11.56,73570.8,0.11,-31.33,-30.67,0,*4D
1488985468.53,18967,11.5,73570.0,0.13,-31.73,-31.23,0,*4B
1488985469.81,18968,11.5,73568.8,0.11,-31.23,-30.73,0,*47
1488985471.03,18969,11.5,73568.0,0.11,-31.05,-30.67,0,*47
1488985472.3,18970,11.5,73566.3,0.11,-31.61,-31.39,0,*47
1488985473.56,18971,11.5,73570.5,0.11,-31.95,-31.57,0,*45
1488985474.78,18972,11.5,73572.3,0.11,-31.01,-30.67,0,*49
1488985476.04,18973,11.56,73572.8,0.13,-30.83,-30.17,0,*46
1488985477.31,18974,11.56,73572.5,0.13,-30.73,-30.01,0,*49
1488985478.54,18975,11.56,73572.5,0.11,-31.33,-30.83,0,*45
1488985479.78,18976,11.56,73570.0,0.11,-32.13,-31.61,0,*4A
1488985481.02,18977,11.56,73570.0,0.11,-31.39,-31.05,0,*42
1488985482.24,18978,11.56,73568.8,0.11,-31.05,-30.83,0,*4D
1488985483.51,18979,11.5,73570.3,0.11,-30.89,-30.55,0,*42
1488985484.74,18980,11.5,73568.8,0.13,-31.05,-30.83,0,*48
1488985486.01,18981,11.56,73568.5,0.13,-31.51,-31.23,0,*43
1488985487.23,18982,11.56,73568.8,0.11,-31.33,-31.17,0,*41
1488985488.48,18983,11.56,73570.0,0.13,-31.01,-30.73,0,*40
1488985489.72,18984,11.5,73568.0,0.13,-31.01,-30.55,0,*43
1488985490.97,18985,11.56,73568.5,0.11,-30.73,-30.45,0,*45
1488985492.19,18986,11.56,73568.5,0.11,-30.83,-30.33,0,*48
1488985493.42,18987,11.56,73568.8,0.13,-31.33,-30.67,0,*40
1488985494.67,18988,11.56,73570.8,0.15,-31.11,-31.11,0,*49
1488985495.95,18989,11.5,73566.0,0.13,-32.85,-33.31,0,*40
1488985497.22,18990,11.5,73564.8,0.13,-31.91,-31.91,0,*46
1488985498.49,18991,11.56,73568.3,0.11,-31.39,-31.39,0,*45
1488985499.73,18992,11.56,73568.8,0.11,-31.39,-31.01,0,*4D
1488985500.94,18993,11.5,73564.5,0.11,-31.33,-31.01,0,*46
1488985502.19,18994,11.56,73570.3,0.11,-31.05,-30.73,0,*40
1488985503.46,18995,11.56,73570.3,0.11,-30.89,-30.73,0,*44
1488985504.71,18996,11.5,73570.5,0.09,-30.77,-30.77,0,*7B
1488985505.97,18997,11.56,73572.0,0.07,-30.51,-30.51,0,*74
1488985507.18,18998,11.56,73572.5,0.09,-30.23,-30.51,0,*70
1488985508.44,18999,11.5,73570.5,0.07,-30.55,-30.51,0,*7E
1488985509.68,19000,11.56,73574.0,0.09,-30.77,-31.11,0,*7D
1488985510.89,19001,11.56,73568.5,0.09,-31.39,-31.29,0,*7C
1488985512.14,19002,11.56,73572.3,0.09,-31.11,-30.73,0,*7B
1488985513.36,19003,11.56,73574.0,0.09,-31.11,-31.05,0,*7A
1488985514.54,19004,11.56,73572.0,0.09,-31.67,-31.67,0,*78
1488985515.75,19005,11.56,73570.8,0.07,-31.79,-31.67,0,*78
1488985516.99,19006,11.56,73570.5,0.07,-31.95,-31.67,0,*79
1488985518.24,19007,11.5,73568.5,0.07,-31.85,-31.67,0,*79
1488985519.48,19008,11.56,73570.5,0.07,-31.67,-31.61,0,*7C
1488985520.74,19009,11.5,73570.0,0.07,-31.57,-31.57,0,*7B
1488985521.98,19010,11.56,73574.8,0.09,-31.61,-31.61,0,*7D
1488985523.23,19011,11.5,73568.8,0.07,-31.85,-31.79,0,*71
1488985524.46,19012,11.5,73570.0,0.09,-31.61,-31.57,0,*7A
1488985525.73,19013,11.56,73574.3,0.07,-31.61,-31.61,0,*70
1488985527.0,19014,11.56,73574.5,0.07,-31.57,-31.57,0,*77
1488985528.27,19015,11.5,73568.3,0.07,-31.39,-31.39,0,*76
1488985529.46,19016,11.5,73570.0,0.09,-31.29,-31.45,0,*71
1488985530.72,19017,11.56,73572.5,0.07,-31.57,-31.57,0,*74
1488985531.94,19018,11.5,73570.3,0.07,-31.79,-31.79,0,*7B
1488985533.15,19019,11.56,73572.5,0.07,-31.67,-31.79,0,*75
1488985534.4,19020,11.5,73570.5,0.07,-31.45,-31.39,0,*7B
1488985535.66,19021,11.56,73570.0,0.07,-31.57,-31.57,0,*71
1488985536.91,19022,11.56,73572.3,0.07,-31.85,-31.67,0,*7E
1488985538.15,19023,11.5,73568.8,0.07,-31.79,-31.61,0,*7A
1488985539.36,19024,11.56,73568.8,0.09,-31.85,-31.67,0,*76
1488985540.61,19025,11.56,73570.3,0.07,-31.85,-31.79,0,*76
1488985541.88,19026,11.56,73570.0,0.07,-31.85,-31.95,0,*77
1488985543.12,19027,11.56,73570.5,0.07,-31.85,-31.67,0,*7B
1488985544.39,19028,11.56,73568.5,0.07,-31.85,-31.95,0,*79
1488985545.61,19029,11.56,73570.3,0.07,-32.01,-31.79,0,*75
1488985546.86,19030,11.5,73568.5,0.07,-31.67,-31.61,0,*77
1488985548.11,19031,11.56,73568.0,0.07,-31.61,-31.45,0,*76
1488985549.31,19032,11.56,73572.0,0.05,-31.91,-31.67,0,*78
1488985550.53,19033,11.56,73574.0,0.05,-31.61,-31.33,0,*77
1488985551.8,19034,11.56,73574.3,0.07,-31.61,-31.39,0,*78
1488985553.05,19035,11.5,73570.3,0.07,-32.01,-31.61,0,*71
1488985554.32,19036,11.56,73576.0,0.07,-31.39,-30.89,0,*7D
1488985555.59,19037,11.56,73570.8,0.07,-31.85,-31.61,0,*7C
1488985556.8,19038,11.5,73568.0,0.09,-32.19,-32.13,0,*7D
1488985558.0,19039,11.5,73570.5,0.05,-32.69,-32.51,0,*71
1488985559.19,19040,11.56,73568.0,0.05,-32.69,-32.57,0,*79
1488985560.43,19041,11.5,73570.0,0.01,-32.97,-32.79,0,*71
1488985561.61,19042,11.56,73568.5,0.05,-32.39,-32.35,0,*7A
1488985562.86,19043,11.5,73568.8,0.01,-32.75,-32.75,0,*73
1488985564.14,19044,11.56,73572.8,-0.01,-32.75,-32.45,0,*5A
1488985565.38,19045,11.56,73572.5,-0.01,-32.39,-32.29,0,*59
1488985566.62,19046,11.56,73572.8,-0.01,-33.03,-32.79,0,*57
1488985567.85,19047,11.56,73570.3,-0.03,-32.97,-32.69,0,*59
1488985569.06,19048,11.56,73574.8,-0.03,-32.29,-32.01,0,*5D
1488985570.32,19049,11.56,73570.8,-0.01,-32.45,-32.29,0,*5E
1488985571.51,19050,11.56,73568.0,-0.03,-32.35,-32.13,0,*5A
1488985572.75,19051,11.5,73568.3,-0.03,-32.29,-32.19,0,*5C
1488985573.96,19052,11.56,73572.3,-0.03,-32.29,-32.13,0,*55
1488985575.17,19053,11.5,73570.3,-0.03,-32.29,-32.13,0,*54
1488985576.41,19054,11.56,73572.0,-0.03,-32.45,-32.29,0,*50
1488985577.62,19055,11.56,73574.8,-0.03,-32.29,-32.13,0,*52
1488985578.87,19056,11.5,73570.0,-0.05,-32.19,-32.01,0,*57
1488985580.11,19057,11.56,73574.5,-0.07,-32.07,-31.85,0,*54
1488985581.38,19058,11.5,73570.8,-0.05,-31.85,-31.73,0,*59
1488985582.63,19059,11.56,73574.3,-0.05,-31.95,-31.79,0,*53
1488985583.9,19060,11.56,73572.3,-0.05,-31.85,-31.73,0,*52
1488985585.17,19061,11.5,73570.0,-0.05,-32.19,-32.19,0,*5A
1488985586.36,19062,11.56,73570.3,-0.07,-32.35,-32.23,0,*5C
1488985587.61,19063,11.56,73572.5,-0.07,-32.45,-32.19,0,*53
1488985588.83,19064,11.56,73572.5,-0.07,-31.85,-31.67,0,*51
1488985590.08,19065,11.56,73572.5,-0.05,-31.73,-31.45,0,*5B
1488985591.33,19066,11.56,73572.5,-0.07,-32.07,-31.85,0,*56
1488985592.59,19067,11.5,73570.5,-0.05,-31.45,-31.23,0,*5C
1488985593.81,19068,11.56,73572.5,-0.07,-31.67,-31.51,0,*54
1488985595.08,19069,11.56,73568.3,-0.05,-31.95,-31.73,0,*5A
1488985596.32,19070,11.56,73572.5,-0.05,-31.95,-31.79,0,*58
1488985597.54,19071,11.56,73574.8,-0.07,-32.23,-31.91,0,*53
1488985598.79,19072,11.56,73572.5,-0.07,-32.07,-31.91,0,*56
1488985600.04,19073,11.56,73574.5,-0.05,-31.95,-31.79,0,*5B
1488985601.26,19074,11.56,73572.0,-0.07,-31.79,-31.51,0,*56
1488985602.51,19075,11.56,73572.8,-0.05,-31.61,-31.45,0,*59
1488985603.76,19076,11.56,73572.3,-0.07,-32.19,-32.19,0,*5E
1488985605.01,19077,11.56,73572.3,-0.07,-32.07,-31.85,0,*56
1488985606.23,19078,11.56,73574.0,-0.07,-31.85,-31.67,0,*5C
1488985607.45,19079,11.56,73572.5,-0.07,-31.91,-31.67,0,*58
1488985608.7,19080,11.56,73572.3,-0.07,-31.85,-31.61,0,*5D
1488985609.9,19081,11.56,73568.5,-0.07,-32.01,-31.79,0,*5A
1488985611.15,19082,11.56,73568.3,-0.07,-32.07,-32.07,0,*55
1488985612.4,19083,11.5,73568.8,-0.07,-32.07,-31.91,0,*58
1488985613.65,19084,11.5,73568.3,-0.07,-32.07,-31.91,0,*5F
1488985614.88,19085,11.56,73574.5,-0.07,-31.79,-31.61,0,*5B
1488985616.1,19086,11.56,73570.0,-0.07,-32.07,-32.01,0,*57
1488985617.32,19087,11.56,73570.3,-0.07,-32.19,-32.01,0,*59
1488985618.6,19088,11.56,73570.3,-0.09,-31.95,-31.85,0,*50
1488985619.85,19089,11.56,73570.0,-0.09,-32.13,-31.95,0,*5D
1488985621.12,19090,11.56,73570.3,-0.09,-32.07,-31.91,0,*54
1488985622.4,19091,11.56,73572.3,-0.09,-31.95,-31.91,0,*5D
1488985623.67,19092,11.56,73568.5,-0.09,-31.95,-31.85,0,*5B
1488985624.9,19093,11.56,73572.0,-0.11,-32.13,-31.91,0,*6B
1488985626.17,19094,11.56,73572.0,-0.09,-32.07,-31.91,0,*50
1488985627.42,19095,11.56,73572.5,-0.11,-32.29,-32.07,0,*68
1488985628.62,19096,11.56,73574.0,-0.11,-32.39,-32.23,0,*6C
1488985629.84,19097,11.56,73570.8,-0.11,-32.23,-31.95,0,*68
1488985631.09,19098,11.56,73570.3,-0.11,-31.91,-31.73,0,*65
1488985632.31,19099,11.56,73572.3,-0.11,-31.67,-31.51,0,*6D
1488985633.57,19100,11.56,73570.0,-0.11,-31.57,-31.39,0,*61
1488985634.84,19101,11.56,73572.0,-0.09,-31.85,-31.57,0,*5E
1488985636.12,19102,11.56,73568.8,-0.09,-31.73,-31.51,0,*52
1488985637.37,19103,11.56,73574.3,-0.11,-31.73,-31.39,0,*64
1488985638.6,19104,11.56,73570.0,-0.11,-31.57,-31.17,0,*69
1488985639.85,19105,11.56,73572.0,-0.11,-31.57,-31.23,0,*6F
1488985641.05,19106,11.56,73568.3,-0.11,-31.33,-31.01,0,*6E
1488985642.27,19107,11.5,73566.3,-0.11,-31.01,-30.51,0,*6A
1488985643.51,19108,11.56,73568.8,-0.11,-31.23,-30.83,0,*6A
1488985644.73,19109,11.56,73570.5,-0.11,-31.51,-31.33,0,*64
1488985645.96,19110,11.56,73568.0,-0.11,-31.39,-31.05,0,*67
1488985647.19,19111,11.56,73570.5,-0.11,-31.17,-30.77,0,*6E
1488985648.42,19112,11.56,73568.3,-0.09,-31.17,-30.67,0,*55
1488985649.68,19113,11.56,73568.8,-0.09,-31.23,-30.83,0,*59
1488985650.93,19114,11.56,73568.0,-0.09,-31.33,-31.23,0,*54
1488985652.19,19115,11.56,73566.8,-0.09,-31.23,-31.05,0,*50
1488985653.41,19116,11.56,73568.8,-0.11,-31.67,-31.23,0,*6E
1488985654.67,19117,11.56,73568.0,-0.11,-31.95,-31.85,0,*6E
1488985655.94,19118,11.56,73568.3,-0.09,-30.77,-30.51,0,*5D
1488985657.22,19119,11.56,73570.5,-0.09,-30.77,-30.77,0,*58
1488985658.44,19120,11.56,73570.0,-0.11,-30.89,-31.33,0,*6B
1488985659.7,19121,11.56,73566.0,-0.11,-31.57,-31.95,0,*64
1488985660.95,19122,11.56,73564.8,-0.13,-32.29,-32.13,0,*62
1488985662.19,19123,11.56,73566.0,-0.13,-32.29,-32.01,0,*60
1488985663.42,19124,11.56,73568.3,-0.15,-31.79,-31.73,0,*61
1488985664.67,19125,11.56,73564.5,-0.15,-32.19,-31.91,0,*69
1488985665.93,19126,11.56,73568.0,-0.17,-32.19,-32.01,0,*62
1488985667.12,19127,11.56,73568.0,-0.21,-31.33,-31.79,0,*61
1488985668.35,19128,11.56,73570.8,-0.21,-30.77,-31.33,0,*61
1488985669.57,19129,11.56,73568.5,-0.23,-30.67,-31.05,0,*66
1488985670.82,19130,11.56,73570.5,-0.23,-30.77,-31.05,0,*6F
1488985672.07,19131,11.56,73570.3,-0.23,-30.77,-31.17,0,*6D
1488985673.29,19132,11.56,73574.3,-0.23,-30.45,-31.01,0,*68
1488985674.52,19133,11.56,73574.5,-0.23,-30.11,-30.67,0,*69
1488985675.73,19134,11.56,73572.3,-0.25,-30.27,-30.67,0,*6D
1488985676.96,19135,11.56,73572.0,-0.23,-30.33,-31.01,0,*6E
1488985678.18,19136,11.56,73570.0,-0.23,-30.83,-31.05,0,*62
1488985679.43,19137,11.56,73574.8,-0.23,-31.01,-31.23,0,*6C
1488985680.68,19138,11.56,73572.0,-0.23,-31.33,-31.23,0,*62
1488985681.94,19139,11.56,73572.8,-0.23,-31.05,-30.77,0,*66
1488985683.14,19140,11.56,73572.3,-0.25,-31.17,-31.05,0,*69
1488985684.4,19141,11.56,73570.3,-0.23,-31.23,-31.17,0,*6A
1488985685.64,19142,11.56,73572.3,-0.23,-31.17,-30.95,0,*65
1488985686.87,19143,11.56,73574.8,-0.23,-31.17,-31.01,0,*68
1488985688.13,19144,11.56,73572.5,-0.23,-31.39,-31.57,0,*60
1488985689.32,19145,11.56,73574.3,-0.21,-32.35,-32.57,0,*6F
1488985690.54,19146,11.56,73574.5,-0.23,-32.23,-32.39,0,*61
1488985691.82,19147,11.56,73572.0,-0.23,-31.85,-32.07,0,*62
1488985693.05,19148,11.56,73572.8,-0.25,-31.91,-32.01,0,*68
1488985694.28,19149,11.56,73570.0,-0.25,-32.29,-32.39,0,*62
1488985695.5,19150,11.56,73572.3,-0.25,-32.29,-32.57,0,*62
1488985696.69,19151,11.56,73570.0,-0.25,-32.39,-32.57,0,*62
1488985697.92,19152,11.56,73574.5,-0.25,-32.39,-32.45,0,*62
1488985699.2,19153,11.56,73568.0,-0.27,-32.79,-32.85,0,*69
1488985700.48,19154,11.56,73574.0,-0.27,-32.45,-32.45,0,*6D
1488985701.73,19155,11.56,73572.3,-0.27,-32.45,-32.51,0,*69
1488985702.97,19156,11.56,73574.3,-0.27,-32.69,-32.69,0,*6F
1488985704.21,19157,11.56,73570.0,-0.29,-32.97,-32.97,0,*60
1488985705.45,19158,11.56,73574.8,-0.29,-32.85,-32.69,0,*6D